^^
Saratoga-Weather Station Historical Data
Daily Summary for January 7, 2020 Units:  Metric    English   Both
Daily Weekly Monthly Yearly Custom
  High: Low: Average:
Temperature: 15.6 °C 10.4 °C 12.2 °C
Dew Point: 11.8 °C 9.2 °C 10.2 °C
Humidity: 94% 71% 88%
Wind Speed: 24.1km/h 0km/h 6.5km/h
Wind Gust: 27.4km/h - -
Wind- - West
Pressure: 1019.6 hPa 1005.4 hPa -
Precipitation: 4.3 mm    
Historical Graphs
 
 
Tabular Data for January 7, 2020
Time Temperature Dew Point Pressure Wind Wind Speed Wind Gust Humidity Rainfall Rate (Hourly) solar
00:03 11.6 °C 10 °C 1005.8 hPa NNW 3.2 km/h 12.9 km/h 90% 0.2 mm 0 W/m2
00:08 11.6 °C 10 °C 1005.4 hPa WNW 11.1 km/h 16.1 km/h 90% 0.2 mm 0 W/m2
00:13 11.7 °C 10.1 °C 1005.8 hPa NW 4.7 km/h 16.1 km/h 90% 0.2 mm 0 W/m2
00:18 11.7 °C 10.1 °C 1005.8 hPa North 6.4 km/h 6.4 km/h 90% 0.2 mm 0 W/m2
00:23 11.7 °C 9.9 °C 1005.8 hPa West 3.2 km/h 16.1 km/h 89% 0.2 mm 0 W/m2
00:28 11.7 °C 9.9 °C 1005.8 hPa WNW 4.7 km/h 14.5 km/h 89% 0.2 mm 0 W/m2
00:33 11.7 °C 9.9 °C 1005.8 hPa WNW 11.1 km/h 19.3 km/h 89% 0.0 mm 0 W/m2
00:38 11.7 °C 9.9 °C 1005.8 hPa WNW 6.4 km/h 19.3 km/h 89% 0.0 mm 0 W/m2
00:43 11.7 °C 9.9 °C 1006.1 hPa WNW 3.2 km/h 14.5 km/h 89% 0.0 mm 0 W/m2
00:48 11.7 °C 9.9 °C 1006.1 hPa NW 6.4 km/h 19.3 km/h 89% 0.0 mm 0 W/m2
00:53 11.7 °C 9.9 °C 1006.1 hPa NW 9.7 km/h 9.7 km/h 89% 0.0 mm 0 W/m2
00:58 11.6 °C 10 °C 1005.8 hPa WNW 6.4 km/h 12.9 km/h 90% 0.0 mm 0 W/m2
01:03 11.6 °C 10 °C 1006.1 hPa WNW 6.4 km/h 14.5 km/h 90% 0.0 mm 0 W/m2
01:08 11.6 °C 10 °C 1006.1 hPa WNW 3.2 km/h 11.3 km/h 90% 0.0 mm 0 W/m2
01:13 11.6 °C 10 °C 1006.1 hPa WNW 3.2 km/h 16.1 km/h 90% 0.0 mm 0 W/m2
01:18 11.6 °C 9.8 °C 1006.1 hPa WNW 6.4 km/h 8 km/h 89% 0.0 mm 0 W/m2
01:23 11.7 °C 9.9 °C 1006.1 hPa NNW 4.7 km/h 22.5 km/h 89% 0.0 mm 0 W/m2
01:28 11.7 °C 9.9 °C 1006.1 hPa NW 3.2 km/h 6.4 km/h 89% 0.0 mm 0 W/m2
01:33 11.7 °C 9.9 °C 1006.1 hPa West 19.5 km/h 19.3 km/h 89% 0.0 mm 0 W/m2
01:38 11.7 °C 9.9 °C 1006.1 hPa South 7.9 km/h 9.7 km/h 89% 0.0 mm 0 W/m2
01:43 11.7 °C 9.8 °C 1006.1 hPa NW 16.3 km/h 19.3 km/h 88% 0.0 mm 0 W/m2
01:48 11.7 °C 9.8 °C 1006.1 hPa WNW 11.1 km/h 14.5 km/h 88% 0.0 mm 0 W/m2
01:53 11.7 °C 9.8 °C 1006.1 hPa West 11.1 km/h 22.5 km/h 88% 0.0 mm 0 W/m2
01:58 11.7 °C 9.8 °C 1006.1 hPa NNW 3.2 km/h 12.9 km/h 88% 0.0 mm 0 W/m2
02:03 11.7 °C 9.8 °C 1006.1 hPa NW 3.2 km/h 22.5 km/h 88% 0.0 mm 0 W/m2
02:08 11.6 °C 9.8 °C 1006.4 hPa SW 6.4 km/h 14.5 km/h 89% 0.0 mm 0 W/m2
02:13 11.4 °C 9.8 °C 1006.4 hPa West 3.2 km/h 17.7 km/h 90% 0.0 mm 0 W/m2
02:18 11.4 °C 9.8 °C 1006.4 hPa SW 1.4 km/h 11.3 km/h 90% 0.0 mm 0 W/m2
02:23 11.3 °C 9.9 °C 1006.4 hPa WSW 3.2 km/h 14.5 km/h 91% 0.2 mm 0 W/m2
02:28 11.3 °C 9.9 °C 1006.4 hPa West 4.7 km/h 4.8 km/h 91% 0.2 mm 0 W/m2
02:33 11.2 °C 9.9 °C 1006.4 hPa NW 6.4 km/h 14.5 km/h 92% 0.2 mm 0 W/m2
02:38 11.2 °C 9.9 °C 1006.4 hPa West 6.4 km/h 12.9 km/h 92% 0.2 mm 0 W/m2
02:43 11.2 °C 9.9 °C 1006.4 hPa NW 6.4 km/h 14.5 km/h 92% 0.2 mm 0 W/m2
02:48 11.2 °C 9.9 °C 1006.4 hPa West 3.2 km/h 16.1 km/h 92% 0.2 mm 0 W/m2
02:53 11.1 °C 9.8 °C 1006.8 hPa West 13 km/h 12.9 km/h 92% 0.5 mm 0 W/m2
02:58 11.1 °C 9.8 °C 1006.4 hPa NW 3.2 km/h 11.3 km/h 92% 0.5 mm 0 W/m2
03:03 11.1 °C 9.8 °C 1006.4 hPa WNW 4.7 km/h 22.5 km/h 92% 0.5 mm 0 W/m2
03:08 11.1 °C 9.8 °C 1006.8 hPa West 4.7 km/h 9.7 km/h 92% 0.5 mm 0 W/m2
03:13 11.2 °C 9.9 °C 1006.8 hPa West 9.7 km/h 22.5 km/h 92% 0.5 mm 0 W/m2
03:18 11.2 °C 9.9 °C 1006.8 hPa WSW 1.4 km/h 16.1 km/h 92% 0.5 mm 0 W/m2
03:23 11.2 °C 9.9 °C 1006.8 hPa South 1.4 km/h 11.3 km/h 92% 0.2 mm 0 W/m2
03:28 11.1 °C 9.8 °C 1006.4 hPa NW 4.7 km/h 11.3 km/h 92% 0.2 mm 0 W/m2
03:33 11.1 °C 9.8 °C 1006.8 hPa WSW 1.4 km/h 11.3 km/h 92% 0.2 mm 0 W/m2
03:38 11.1 °C 9.8 °C 1006.8 hPa NW 4.7 km/h 6.4 km/h 92% 0.2 mm 0 W/m2
03:43 11.1 °C 9.8 °C 1006.8 hPa North 4.7 km/h 14.5 km/h 92% 0.2 mm 0 W/m2
03:48 11.1 °C 9.8 °C 1006.8 hPa SSW 7.9 km/h 11.3 km/h 92% 0.2 mm 0 W/m2
03:53 11.1 °C 9.8 °C 1006.8 hPa West 1.4 km/h 3.2 km/h 92% 0.0 mm 0 W/m2
03:58 11.2 °C 9.9 °C 1006.8 hPa NNW 3.2 km/h 12.9 km/h 92% 0.0 mm 0 W/m2
04:03 11.2 °C 9.9 °C 1007.1 hPa Calm   3.2 km/h 92% 0.0 mm 0 W/m2
04:08 11.2 °C 9.9 °C 1007.1 hPa North 3.2 km/h 11.3 km/h 92% 0.0 mm 0 W/m2
04:13 11.2 °C 9.9 °C 1007.1 hPa NW 4.7 km/h 6.4 km/h 92% 0.0 mm 0 W/m2
04:19 11.2 °C 9.9 °C 1007.1 hPa WNW 6.4 km/h 14.5 km/h 92% 0.0 mm 0 W/m2
04:24 11.2 °C 9.9 °C 1007.5 hPa SW 4.7 km/h 11.3 km/h 92% 0.0 mm 0 W/m2
04:29 11.2 °C 9.9 °C 1007.1 hPa WNW 9.7 km/h 14.5 km/h 92% 0.0 mm 0 W/m2
04:34 11.2 °C 9.9 °C 1007.5 hPa WNW 4.7 km/h 11.3 km/h 92% 0.0 mm 0 W/m2
04:39 11.2 °C 9.9 °C 1007.5 hPa NW 7.9 km/h 8 km/h 92% 0.0 mm 0 W/m2
04:44 11.2 °C 9.9 °C 1007.5 hPa WSW 16.3 km/h 16.1 km/h 92% 0.0 mm 0 W/m2
04:49 11.2 °C 9.9 °C 1007.5 hPa NW 13 km/h 19.3 km/h 92% 0.0 mm 0 W/m2
04:54 11.2 °C 9.9 °C 1007.5 hPa WNW 11.1 km/h 14.5 km/h 92% 0.0 mm 0 W/m2
04:59 11.2 °C 9.9 °C 1007.8 hPa West 4.7 km/h 20.9 km/h 92% 0.0 mm 0 W/m2
05:04 11.2 °C 9.9 °C 1007.8 hPa WNW 7.9 km/h 8 km/h 92% 0.0 mm 0 W/m2
05:09 11.2 °C 10.1 °C 1007.5 hPa West 4.7 km/h 20.9 km/h 93% 0.0 mm 0 W/m2
05:14 11.2 °C 10.1 °C 1007.5 hPa WNW 4.7 km/h 12.9 km/h 93% 0.0 mm 0 W/m2
05:19 11.2 °C 10.1 °C 1007.8 hPa WNW 6.4 km/h 12.9 km/h 93% 0.0 mm 0 W/m2
05:24 11.2 °C 10.1 °C 1007.8 hPa West 9.7 km/h 19.3 km/h 93% 0.0 mm 0 W/m2
05:29 11.2 °C 10.1 °C 1007.8 hPa WSW 7.9 km/h 16.1 km/h 93% 0.0 mm 0 W/m2
05:34 11.2 °C 10.1 °C 1007.8 hPa Calm   19.3 km/h 93% 0.0 mm 0 W/m2
05:39 11.2 °C 10.1 °C 1008.1 hPa NW 4.7 km/h 11.3 km/h 93% 0.2 mm 0 W/m2
05:44 11.1 °C 10 °C 1008.1 hPa West 6.4 km/h 17.7 km/h 93% 0.5 mm 0 W/m2
05:49 11.1 °C 10 °C 1008.1 hPa Calm   8 km/h 93% 0.5 mm 0 W/m2
05:54 11.1 °C 10 °C 1008.1 hPa WSW 4.7 km/h 19.3 km/h 93% 0.5 mm 0 W/m2
05:59 11.1 °C 10 °C 1008.1 hPa WSW 6.4 km/h 14.5 km/h 93% 0.5 mm 0 W/m2
06:04 11.1 °C 10 °C 1008.1 hPa SW 7.9 km/h 19.3 km/h 93% 0.8 mm 0 W/m2
06:09 11 °C 9.9 °C 1008.5 hPa WNW 16.3 km/h 16.1 km/h 93% 0.8 mm 0 W/m2
06:14 11.1 °C 10 °C 1008.5 hPa WSW 3.2 km/h 14.5 km/h 93% 1.0 mm 0 W/m2
06:19 11 °C 9.9 °C 1008.5 hPa West 4.7 km/h 14.5 km/h 93% 1.5 mm 0 W/m2
06:24 10.9 °C 9.8 °C 1008.5 hPa SW 9.7 km/h 16.1 km/h 93% 1.5 mm 0 W/m2
06:29 10.9 °C 9.8 °C 1008.5 hPa West 4.7 km/h 12.9 km/h 93% 2.0 mm 0 W/m2
06:34 10.9 °C 10 °C 1008.8 hPa WNW 14.3 km/h 19.3 km/h 94% 2.3 mm 0 W/m2
06:39 10.9 °C 10 °C 1008.8 hPa West 4.7 km/h 14.5 km/h 94% 2.3 mm 0 W/m2
06:44 10.8 °C 9.9 °C 1008.8 hPa West 11.1 km/h 16.1 km/h 94% 2.3 mm 0 W/m2
06:49 10.8 °C 9.9 °C 1009.1 hPa WNW 7.9 km/h 19.3 km/h 94% 2.3 mm 0 W/m2
06:54 10.8 °C 9.9 °C 1009.1 hPa West 4.7 km/h 12.9 km/h 94% 2.3 mm 0 W/m2
06:59 10.8 °C 9.9 °C 1009.1 hPa SW 11.1 km/h 17.7 km/h 94% 2.3 mm 0 W/m2
07:04 10.8 °C 9.7 °C 1009.1 hPa West 13 km/h 17.7 km/h 93% 2.0 mm 0 W/m2
07:09 10.8 °C 9.7 °C 1009.5 hPa WSW 13 km/h 14.5 km/h 93% 2.0 mm 0 W/m2
07:14 10.7 °C 9.6 °C 1009.5 hPa WSW 3.2 km/h 19.3 km/h 93% 1.8 mm 0 W/m2
07:19 10.7 °C 9.6 °C 1009.5 hPa WNW 14.3 km/h 14.5 km/h 93% 1.5 mm 0 W/m2
07:24 10.8 °C 9.7 °C 1009.5 hPa SW 9.7 km/h 19.3 km/h 93% 1.3 mm 0 W/m2
07:29 10.7 °C 9.6 °C 1009.8 hPa WNW 4.7 km/h 11.3 km/h 93% 0.8 mm 0 W/m2
07:34 10.7 °C 9.8 °C 1009.8 hPa West 4.7 km/h 16.1 km/h 94% 0.5 mm 0 W/m2
07:39 10.8 °C 9.9 °C 1009.8 hPa West 1.4 km/h 12.9 km/h 94% 0.5 mm 0 W/m2
07:44 10.8 °C 9.9 °C 1009.8 hPa NNW 6.4 km/h   94% 0.2 mm 0 W/m2
07:49 10.8 °C 9.9 °C 1009.8 hPa SW 4.7 km/h 12.9 km/h 94% 0.2 mm 0 W/m2
07:54 10.8 °C 9.9 °C 1010.2 hPa NW 4.7 km/h 11.3 km/h 94% 0.2 mm 5 W/m2
07:59 10.8 °C 9.9 °C 1010.2 hPa West 11.1 km/h 12.9 km/h 94% 0.0 mm 7 W/m2
08:04 10.8 °C 9.9 °C 1010.2 hPa WNW 3.2 km/h 14.5 km/h 94% 0.0 mm 9 W/m2
08:09 10.9 °C 10 °C 1010.2 hPa WNW 6.4 km/h 14.5 km/h 94% 0.0 mm 12 W/m2
08:14 10.9 °C 10 °C 1010.2 hPa WNW 11.1 km/h 14.5 km/h 94% 0.0 mm 12 W/m2
08:19 10.9 °C 10 °C 1010.2 hPa West 6.4 km/h 17.7 km/h 94% 0.0 mm 16 W/m2
08:24 10.9 °C 10 °C 1010.5 hPa West 4.7 km/h 19.3 km/h 94% 0.0 mm 23 W/m2
08:29 10.9 °C 9.8 °C 1010.5 hPa West 6.4 km/h 17.7 km/h 93% 0.0 mm 32 W/m2
08:34 10.9 °C 10 °C 1010.8 hPa West 9.7 km/h 19.3 km/h 94% 0.0 mm 86 W/m2
08:39 11 °C 10.1 °C 1010.8 hPa West 6.4 km/h 20.9 km/h 94% 0.0 mm 58 W/m2
08:44 11.1 °C 10 °C 1010.8 hPa WSW 9.7 km/h 14.5 km/h 93% 0.0 mm 63 W/m2
08:49 11.2 °C 10.1 °C 1010.8 hPa NNW 7.9 km/h 19.3 km/h 93% 0.0 mm 62 W/m2
08:54 11.2 °C 10.3 °C 1011.2 hPa West 9.7 km/h 14.5 km/h 94% 0.0 mm 79 W/m2
08:59 11.2 °C 10.1 °C 1011.2 hPa West 9.7 km/h 12.9 km/h 93% 0.0 mm 49 W/m2
09:04 11.3 °C 10.2 °C 1011.2 hPa WNW 4.7 km/h 12.9 km/h 93% 0.0 mm 42 W/m2
09:09 11.3 °C 10.2 °C 1011.5 hPa West 14.3 km/h 16.1 km/h 93% 0.0 mm 60 W/m2
09:14 11.2 °C 10.1 °C 1011.5 hPa West 6.4 km/h 11.3 km/h 93% 0.0 mm 60 W/m2
09:19 11.3 °C 10.2 °C 1011.5 hPa West 9.7 km/h 19.3 km/h 93% 0.0 mm 111 W/m2
09:24 11.3 °C 10.2 °C 1011.9 hPa West 6.4 km/h 20.9 km/h 93% 0.0 mm 77 W/m2
09:29 11.4 °C 10.3 °C 1011.9 hPa WSW 13 km/h 16.1 km/h 93% 0.0 mm 262 W/m2
09:34 11.6 °C 10.5 °C 1011.9 hPa West 6.4 km/h 19.3 km/h 93% 0.0 mm 86 W/m2
09:39 11.6 °C 10.5 °C 1011.9 hPa WNW 13 km/h 14.5 km/h 93% 0.0 mm 79 W/m2
09:44 11.7 °C 10.6 °C 1011.9 hPa WNW 6.4 km/h 22.5 km/h 93% 0.0 mm 357 W/m2
09:49 11.8 °C 10.7 °C 1011.9 hPa WNW 6.4 km/h 16.1 km/h 93% 0.0 mm 93 W/m2
09:54 11.8 °C 10.7 °C 1011.9 hPa WNW 13 km/h 22.5 km/h 93% 0.0 mm 93 W/m2
09:59 11.8 °C 10.7 °C 1012.2 hPa West 4.7 km/h 24.1 km/h 93% 0.0 mm 420 W/m2
10:04 12 °C 10.7 °C 1012.2 hPa West 14.3 km/h 20.9 km/h 92% 0.0 mm 113 W/m2
10:09 12.1 °C 10.7 °C 1012.2 hPa West 13 km/h 20.9 km/h 91% 0.0 mm 200 W/m2
10:14 12.1 °C 10.7 °C 1012.5 hPa West 14.3 km/h 14.5 km/h 91% 0.0 mm 98 W/m2
10:19 12.2 °C 10.8 °C 1012.5 hPa WNW 7.9 km/h 12.9 km/h 91% 0.0 mm 128 W/m2
10:24 12.3 °C 10.7 °C 1012.5 hPa WSW 16.3 km/h 19.3 km/h 90% 0.0 mm 381 W/m2
10:29 12.4 °C 10.6 °C 1012.9 hPa WNW 14.3 km/h 16.1 km/h 89% 0.0 mm 350 W/m2
10:34 12.4 °C 10.5 °C 1012.9 hPa WSW 11.1 km/h 17.7 km/h 88% 0.0 mm 392 W/m2
10:40 12.4 °C 10.5 °C 1012.9 hPa West 9.7 km/h 20.9 km/h 88% 0.0 mm 376 W/m2
10:45 12.4 °C 10.3 °C 1012.9 hPa West 9.7 km/h 25.7 km/h 87% 0.0 mm 404 W/m2
10:50 12.4 °C 10.3 °C 1012.9 hPa West 16.3 km/h 17.7 km/h 87% 0.0 mm 367 W/m2
10:55 12.4 °C 10.3 °C 1012.9 hPa NW 6.4 km/h 19.3 km/h 87% 0.0 mm 383 W/m2
11:00 12.7 °C 10.6 °C 1013.2 hPa West 6.4 km/h 16.1 km/h 87% 0.0 mm 473 W/m2
11:05 12.9 °C 10.6 °C 1012.9 hPa West 13 km/h 14.5 km/h 86% 0.0 mm 476 W/m2
11:10 13.1 °C 10.8 °C 1013.2 hPa WSW 24.1 km/h 24.1 km/h 86% 0.0 mm 559 W/m2
11:15 13.2 °C 10.6 °C 1013.2 hPa NW 13 km/h 16.1 km/h 84% 0.0 mm 116 W/m2
11:20 13.1 °C 10.5 °C 1013.2 hPa WNW 24.1 km/h 24.1 km/h 84% 0.0 mm 403 W/m2
11:25 13.1 °C 10.5 °C 1013.5 hPa NW 14.3 km/h 14.5 km/h 84% 0.0 mm 169 W/m2
11:30 13.1 °C 10.6 °C 1013.5 hPa West 4.7 km/h 19.3 km/h 85% 0.0 mm 285 W/m2
11:35 13 °C 10.4 °C 1013.5 hPa WNW 7.9 km/h 17.7 km/h 84% 0.0 mm 105 W/m2
11:40 13 °C 10.5 °C 1013.5 hPa SW 7.9 km/h 19.3 km/h 85% 0.0 mm 123 W/m2
11:45 13 °C 10.5 °C 1013.5 hPa West 16.3 km/h 17.7 km/h 85% 0.0 mm 274 W/m2
11:50 13.2 °C 10.7 °C 1013.9 hPa SW 9.7 km/h 19.3 km/h 85% 0.0 mm 123 W/m2
11:55 13.1 °C 10.8 °C 1013.9 hPa West 9.7 km/h 12.9 km/h 86% 0.0 mm 176 W/m2
12:00 13 °C 10.9 °C 1013.9 hPa West 6.4 km/h 16.1 km/h 87% 0.0 mm 366 W/m2
12:05 13 °C 10.9 °C 1013.9 hPa WNW 11.1 km/h 11.3 km/h 87% 0.0 mm 246 W/m2
12:10 13.1 °C 11 °C 1013.9 hPa WSW 4.7 km/h 9.7 km/h 87% 0.0 mm 206 W/m2
12:15 13.2 °C 11.1 °C 1014.2 hPa WSW 6.4 km/h 16.1 km/h 87% 0.0 mm 125 W/m2
12:20 13.1 °C 11 °C 1014.2 hPa West 4.7 km/h 9.7 km/h 87% 0.0 mm 63 W/m2
12:25 12.9 °C 11 °C 1014.2 hPa WSW 4.7 km/h 6.4 km/h 88% 0.8 mm 62 W/m2
12:30 12.7 °C 10.9 °C 1014.2 hPa West 3.2 km/h 9.7 km/h 89% 1.0 mm 163 W/m2
12:35 12.6 °C 11 °C 1014.2 hPa West 1.4 km/h 12.9 km/h 90% 1.0 mm 225 W/m2
12:40 12.7 °C 11.3 °C 1014.2 hPa NNW 6.4 km/h 14.5 km/h 91% 1.0 mm 229 W/m2
12:45 12.8 °C 11.4 °C 1014.2 hPa West 6.4 km/h 6.4 km/h 91% 1.0 mm 239 W/m2
12:50 12.9 °C 11.3 °C 1014.2 hPa WNW 13 km/h 12.9 km/h 90% 1.0 mm 206 W/m2
12:55 13.2 °C 11.4 °C 1014.2 hPa West 16.3 km/h 17.7 km/h 89% 1.0 mm 610 W/m2
13:00 13.6 °C 11.8 °C 1014.2 hPa SW 11.1 km/h 12.9 km/h 89% 1.0 mm 466 W/m2
13:05 13.7 °C 11.6 °C 1014.2 hPa WNW 7.9 km/h 12.9 km/h 87% 1.0 mm 350 W/m2
13:10 13.8 °C 11.7 °C 1014.2 hPa SW 7.9 km/h 17.7 km/h 87% 1.0 mm 548 W/m2
13:15 13.9 °C 11.4 °C 1014.6 hPa WNW 7.9 km/h 19.3 km/h 85% 1.0 mm 276 W/m2
13:20 13.9 °C 11.2 °C 1014.6 hPa NW 20.9 km/h 22.5 km/h 84% 1.0 mm 288 W/m2
13:25 14 °C 11.3 °C 1014.6 hPa WSW 13 km/h 19.3 km/h 84% 0.2 mm 371 W/m2
13:30 14.1 °C 11.1 °C 1014.6 hPa West 17.7 km/h 20.9 km/h 82% 0.0 mm 262 W/m2
13:35 14.1 °C 11.3 °C 1014.6 hPa WSW 7.9 km/h 8 km/h 83% 0.0 mm 301 W/m2
13:40 14.1 °C 11.3 °C 1014.6 hPa West 9.7 km/h 17.7 km/h 83% 0.0 mm 350 W/m2
13:45 14.1 °C 11.4 °C 1014.6 hPa West 9.7 km/h 14.5 km/h 84% 0.0 mm 279 W/m2
13:50 14 °C 11.3 °C 1014.6 hPa West 4.7 km/h 17.7 km/h 84% 0.0 mm 156 W/m2
13:55 13.8 °C 11.3 °C 1014.9 hPa WSW 7.9 km/h 16.1 km/h 85% 0.0 mm 304 W/m2
14:00 13.8 °C 11.1 °C 1014.6 hPa NW 7.9 km/h 17.7 km/h 84% 0.0 mm 218 W/m2
14:05 13.8 °C 11.1 °C 1014.9 hPa West 6.4 km/h 17.7 km/h 84% 0.0 mm 258 W/m2
14:10 13.8 °C 11.3 °C 1014.9 hPa NW 4.7 km/h 11.3 km/h 85% 0.0 mm 188 W/m2
14:15 13.8 °C 11.3 °C 1014.9 hPa WNW 6.4 km/h 11.3 km/h 85% 0.0 mm 91 W/m2
14:20 13.8 °C 11.3 °C 1014.9 hPa WNW 11.1 km/h 12.9 km/h 85% 0.0 mm 72 W/m2
14:25 13.7 °C 11 °C 1014.9 hPa West 6.4 km/h 16.1 km/h 84% 0.0 mm 181 W/m2
14:30 13.8 °C 11 °C 1014.9 hPa WSW 4.7 km/h 9.7 km/h 83% 0.0 mm 125 W/m2
14:35 14 °C 10.6 °C 1014.9 hPa West 6.4 km/h 22.5 km/h 80% 0.0 mm 56 W/m2
14:40 14.3 °C 10.5 °C 1014.9 hPa WNW 4.7 km/h 16.1 km/h 78% 0.0 mm 53 W/m2
14:45 14.5 °C 10.1 °C 1014.9 hPa NW 3.2 km/h 22.5 km/h 75% 0.0 mm 84 W/m2
14:50 14.7 °C 10.5 °C 1014.9 hPa NW 3.2 km/h 6.4 km/h 76% 0.0 mm 77 W/m2
14:55 14.7 °C 10.3 °C 1015.2 hPa NW 19.5 km/h 27.4 km/h 75% 0.0 mm 107 W/m2
15:00 14.4 °C 10 °C 1015.2 hPa West 14.3 km/h 24.1 km/h 75% 0.0 mm 134 W/m2
15:05 14.2 °C 10.2 °C 1015.2 hPa West 3.2 km/h 27.4 km/h 77% 0.0 mm 192 W/m2
15:10 14.3 °C 10.5 °C 1015.2 hPa WNW 4.7 km/h 12.9 km/h 78% 0.0 mm 118 W/m2
15:15 14.4 °C 10.6 °C 1015.2 hPa West 3.2 km/h 12.9 km/h 78% 0.0 mm 524 W/m2
15:20 14.6 °C 10.4 °C 1015.2 hPa NW 16.3 km/h 20.9 km/h 76% 0.0 mm 512 W/m2
15:25 14.7 °C 10.5 °C 1015.2 hPa WSW 4.7 km/h 19.3 km/h 76% 0.0 mm 501 W/m2
15:30 14.8 °C 10.6 °C 1015.2 hPa WNW 4.7 km/h 16.1 km/h 76% 0.0 mm 496 W/m2
15:35 14.9 °C 10.5 °C 1015.2 hPa WNW 14.3 km/h 19.3 km/h 75% 0.0 mm 487 W/m2
15:40 15.1 °C 10.3 °C 1015.2 hPa WNW 6.4 km/h 20.9 km/h 73% 0.0 mm 483 W/m2
15:45 15.3 °C 10.7 °C 1015.2 hPa WSW 14.3 km/h 19.3 km/h 74% 0.0 mm 476 W/m2
15:50 15.4 °C 10.4 °C 1015.2 hPa WSW 6.4 km/h 14.5 km/h 72% 0.0 mm 482 W/m2
15:55 15.6 °C 10.6 °C 1015.2 hPa WSW 4.7 km/h 20.9 km/h 72% 0.0 mm 455 W/m2
16:00 15.6 °C 10.6 °C 1015.2 hPa WNW 7.9 km/h 19.3 km/h 72% 0.0 mm 350 W/m2
16:05 15.3 °C 10.1 °C 1015.6 hPa SSW 14.3 km/h 22.5 km/h 71% 0.0 mm 200 W/m2
16:10 15.2 °C 10 °C 1015.2 hPa NNW 4.7 km/h 17.7 km/h 71% 0.0 mm 536 W/m2
16:15 15.3 °C 10.1 °C 1015.6 hPa West 9.7 km/h 16.1 km/h 71% 0.0 mm 508 W/m2
16:20 15.3 °C 10.5 °C 1015.2 hPa NW 4.7 km/h 11.3 km/h 73% 0.0 mm 146 W/m2
16:25 15.3 °C 10.5 °C 1015.6 hPa WNW 3.2 km/h 11.3 km/h 73% 0.0 mm 109 W/m2
16:30 15.1 °C 10.3 °C 1015.6 hPa West 11.1 km/h 12.9 km/h 73% 0.0 mm 111 W/m2
16:35 14.8 °C 10.2 °C 1015.9 hPa NW 13 km/h 12.9 km/h 74% 0.0 mm 137 W/m2
16:40 14.7 °C 10.3 °C 1015.9 hPa West 11.1 km/h 11.3 km/h 75% 0.0 mm 109 W/m2
16:45 14.5 °C 10.1 °C 1015.9 hPa WNW 3.2 km/h 14.5 km/h 75% 0.0 mm 84 W/m2
16:50 14.5 °C 10.3 °C 1015.9 hPa West 6.4 km/h 12.9 km/h 76% 0.0 mm 84 W/m2
16:55 14.4 °C 10 °C 1016.3 hPa WNW 11.1 km/h 20.9 km/h 75% 0.0 mm 83 W/m2
17:00 14.3 °C 10.1 °C 1016.3 hPa West 4.7 km/h 12.9 km/h 76% 0.0 mm 93 W/m2
17:05 14.3 °C 9.9 °C 1016.3 hPa SW 7.9 km/h 17.7 km/h 75% 0.0 mm 125 W/m2
17:10 14.2 °C 10 °C 1016.3 hPa WSW 13 km/h 12.9 km/h 76% 0.0 mm 76 W/m2
17:15 14.2 °C 10.2 °C 1016.3 hPa West 11.1 km/h 14.5 km/h 77% 0.0 mm 70 W/m2
17:21 14.1 °C 10.3 °C 1016.3 hPa WSW 7.9 km/h 16.1 km/h 78% 0.0 mm 56 W/m2
17:26 14 °C 10.2 °C 1016.3 hPa WSW 6.4 km/h 16.1 km/h 78% 0.0 mm 47 W/m2
17:31 13.9 °C 10.1 °C 1016.6 hPa West 6.4 km/h 17.7 km/h 78% 0.0 mm 42 W/m2
17:36 13.8 °C 10.2 °C 1016.6 hPa West 6.4 km/h 9.7 km/h 79% 0.0 mm 46 W/m2
17:41 13.8 °C 10.2 °C 1016.6 hPa West 6.4 km/h 22.5 km/h 79% 0.0 mm 46 W/m2
17:46 13.8 °C 10.4 °C 1016.6 hPa West 4.7 km/h 11.3 km/h 80% 0.0 mm 58 W/m2
17:51 13.7 °C 10.3 °C 1016.6 hPa West 4.7 km/h 14.5 km/h 80% 0.0 mm 51 W/m2
17:56 13.7 °C 10.5 °C 1016.6 hPa NW 7.9 km/h 11.3 km/h 81% 0.0 mm 51 W/m2
18:01 13.7 °C 10.5 °C 1016.6 hPa West 3.2 km/h 4.8 km/h 81% 0.0 mm 30 W/m2
18:06 13.6 °C 10.4 °C 1016.6 hPa WNW 4.7 km/h 14.5 km/h 81% 0.0 mm 21 W/m2
18:11 13.6 °C 10.4 °C 1016.6 hPa NW 3.2 km/h 11.3 km/h 81% 0.0 mm 16 W/m2
18:16 13.5 °C 10.3 °C 1016.6 hPa West 6.4 km/h 14.5 km/h 81% 0.0 mm 12 W/m2
18:21 13.4 °C 10.2 °C 1016.9 hPa West 4.7 km/h 8 km/h 81% 0.0 mm 9 W/m2
18:26 13.4 °C 10.4 °C 1016.9 hPa NW 4.7 km/h 12.9 km/h 82% 0.0 mm 9 W/m2
18:31 13.4 °C 10.4 °C 1016.9 hPa West 6.4 km/h 8 km/h 82% 0.0 mm 9 W/m2
18:36 13.4 °C 10.4 °C 1016.9 hPa West 4.7 km/h 11.3 km/h 82% 0.0 mm 12 W/m2
18:41 13.3 °C 10.3 °C 1016.9 hPa WNW 3.2 km/h 4.8 km/h 82% 0.0 mm 7 W/m2
18:46 13.3 °C 10.5 °C 1016.9 hPa WSW 1.4 km/h 8 km/h 83% 0.0 mm 5 W/m2
18:51 13.2 °C 10.4 °C 1016.9 hPa WNW 1.4 km/h 12.9 km/h 83% 0.0 mm 5 W/m2
18:56 13.2 °C 10.4 °C 1016.9 hPa WNW 6.4 km/h 11.3 km/h 83% 0.0 mm 5 W/m2
19:01 13.1 °C 10.5 °C 1016.9 hPa WNW 3.2 km/h 3.2 km/h 84% 0.0 mm 0 W/m2
19:06 13.1 °C 10.5 °C 1017.3 hPa WNW 4.7 km/h 4.8 km/h 84% 0.0 mm 0 W/m2
19:11 12.9 °C 10.3 °C 1017.3 hPa WNW 3.2 km/h 6.4 km/h 84% 0.0 mm 0 W/m2
19:16 12.8 °C 10.2 °C 1017.3 hPa WNW 4.7 km/h 6.4 km/h 84% 0.0 mm 0 W/m2
19:21 12.8 °C 10.3 °C 1017.3 hPa West 3.2 km/h 3.2 km/h 85% 0.0 mm 0 W/m2
19:26 12.7 °C 10.2 °C 1017.3 hPa West 1.4 km/h 4.8 km/h 85% 0.0 mm 0 W/m2
19:31 12.6 °C 10.3 °C 1017.6 hPa Calm   6.4 km/h 86% 0.0 mm 0 W/m2
19:36 12.4 °C 10.1 °C 1017.6 hPa WSW 1.4 km/h 6.4 km/h 86% 0.0 mm 0 W/m2
19:41 12.3 °C 10.2 °C 1018.0 hPa Calm   1.6 km/h 87% 0.0 mm 0 W/m2
19:46 12.2 °C 10.1 °C 1018.0 hPa WNW 4.7 km/h 9.7 km/h 87% 0.0 mm 0 W/m2
19:51 12.1 °C 10.2 °C 1018.0 hPa WNW 1.4 km/h 3.2 km/h 88% 0.0 mm 0 W/m2
19:56 12.1 °C 10.2 °C 1018.0 hPa Calm   8 km/h 88% 0.0 mm 0 W/m2
20:01 11.9 °C 10 °C 1018.3 hPa WNW 1.4 km/h 6.4 km/h 88% 0.0 mm 0 W/m2
20:06 11.8 °C 10 °C 1018.3 hPa WNW 1.4 km/h 1.6 km/h 89% 0.0 mm 0 W/m2
20:11 11.7 °C 9.9 °C 1018.3 hPa NW 6.4 km/h 6.4 km/h 89% 0.0 mm 0 W/m2
20:16 11.6 °C 10 °C 1018.6 hPa WSW 6.4 km/h 9.7 km/h 90% 0.0 mm 0 W/m2
20:21 11.6 °C 10 °C 1018.6 hPa WNW 3.2 km/h 8 km/h 90% 0.0 mm 0 W/m2
20:26 11.6 °C 10 °C 1018.6 hPa Calm   4.8 km/h 90% 0.0 mm 0 W/m2
20:32 11.6 °C 10 °C 1019.0 hPa West 3.2 km/h 8 km/h 90% 0.0 mm 0 W/m2
20:37 11.5 °C 9.9 °C 1019.0 hPa SSW 3.2 km/h 3.2 km/h 90% 0.0 mm 0 W/m2
20:42 11.5 °C 9.9 °C 1018.6 hPa SW 4.7 km/h 6.4 km/h 90% 0.0 mm 0 W/m2
20:47 11.5 °C 9.9 °C 1018.6 hPa Calm   4.8 km/h 90% 0.0 mm 0 W/m2
20:52 11.4 °C 9.8 °C 1019.0 hPa WNW 1.4 km/h 6.4 km/h 90% 0.0 mm 0 W/m2
20:57 11.5 °C 9.9 °C 1019.0 hPa NW 3.2 km/h 6.4 km/h 90% 0.0 mm 0 W/m2
21:02 11.5 °C 9.9 °C 1019.0 hPa WSW 1.4 km/h 6.4 km/h 90% 0.0 mm 0 W/m2
21:07 11.5 °C 9.9 °C 1019.0 hPa WNW 3.2 km/h 9.7 km/h 90% 0.0 mm 0 W/m2
21:12 11.4 °C 9.8 °C 1019.0 hPa WSW 4.7 km/h 9.7 km/h 90% 0.0 mm 0 W/m2
21:17 11.4 °C 9.8 °C 1019.0 hPa NW 4.7 km/h 4.8 km/h 90% 0.0 mm 0 W/m2
21:22 11.4 °C 9.8 °C 1019.0 hPa West 1.4 km/h 3.2 km/h 90% 0.0 mm 0 W/m2
21:27 11.3 °C 9.7 °C 1019.0 hPa WNW 3.2 km/h 6.4 km/h 90% 0.0 mm 0 W/m2
21:32 11.3 °C 9.7 °C 1019.0 hPa West 3.2 km/h 11.3 km/h 90% 0.0 mm 0 W/m2
21:37 11.3 °C 9.7 °C 1019.0 hPa SSE 3.2 km/h 4.8 km/h 90% 0.0 mm 0 W/m2
21:42 11.3 °C 9.7 °C 1019.3 hPa WNW 3.2 km/h 4.8 km/h 90% 0.0 mm 0 W/m2
21:47 11.3 °C 9.7 °C 1019.3 hPa West 4.7 km/h 6.4 km/h 90% 0.0 mm 0 W/m2
21:52 11.2 °C 9.6 °C 1019.3 hPa Calm   6.4 km/h 90% 0.0 mm 0 W/m2
21:57 11.2 °C 9.6 °C 1019.3 hPa WNW 3.2 km/h 6.4 km/h 90% 0.0 mm 0 W/m2
22:02 11.2 °C 9.6 °C 1019.3 hPa West 3.2 km/h 3.2 km/h 90% 0.0 mm 0 W/m2
22:07 11.1 °C 9.5 °C 1019.3 hPa West 3.2 km/h 3.2 km/h 90% 0.0 mm 0 W/m2
22:12 10.9 °C 9.3 °C 1019.6 hPa Calm   1.6 km/h 90% 0.0 mm 0 W/m2
22:17 10.8 °C 9.2 °C 1019.6 hPa Calm   1.6 km/h 90% 0.0 mm 0 W/m2
22:22 10.6 °C 9.2 °C 1019.6 hPa WNW 1.4 km/h 3.2 km/h 91% 0.0 mm 0 W/m2
22:27 10.4 °C 9.2 °C 1019.6 hPa Calm   3.2 km/h 92% 0.0 mm 0 W/m2
22:32 10.4 °C 9.2 °C 1019.6 hPa SW 3.2 km/h 6.4 km/h 92% 0.0 mm 0 W/m2
22:37 10.4 °C 9.2 °C 1019.6 hPa West 4.7 km/h 4.8 km/h 92% 0.0 mm 0 W/m2
22:42 10.6 °C 9.4 °C 1019.6 hPa WNW 1.4 km/h 9.7 km/h 92% 0.0 mm 0 W/m2
22:47 10.6 °C 9.5 °C 1019.3 hPa Calm   9.7 km/h 93% 0.0 mm 0 W/m2
22:52 10.7 °C 9.5 °C 1019.3 hPa Calm   4.8 km/h 92% 0.0 mm 0 W/m2
22:57 10.8 °C 9.6 °C 1019.3 hPa WNW 1.4 km/h 1.6 km/h 92% 0.0 mm 0 W/m2
23:02 10.9 °C 9.7 °C 1019.3 hPa SW 1.4 km/h 6.4 km/h 92% 0.0 mm 0 W/m2
23:07 11 °C 9.6 °C 1019.6 hPa WNW 1.4 km/h 1.6 km/h 91% 0.0 mm 0 W/m2
23:12 11.1 °C 9.7 °C 1019.6 hPa NNW 3.2 km/h 3.2 km/h 91% 0.0 mm 0 W/m2
23:17 11.2 °C 9.8 °C 1019.6 hPa North 3.2 km/h 4.8 km/h 91% 0.0 mm 0 W/m2
23:22 11.2 °C 9.8 °C 1019.6 hPa Calm   1.6 km/h 91% 0.0 mm 0 W/m2
23:27 11.2 °C 9.6 °C 1019.6 hPa NW 3.2 km/h 3.2 km/h 90% 0.0 mm 0 W/m2
23:32 11.2 °C 9.6 °C 1019.6 hPa North 3.2 km/h 3.2 km/h 90% 0.0 mm 0 W/m2
23:37 11.2 °C 9.6 °C 1019.6 hPa NE 3.2 km/h 4.8 km/h 90% 0.0 mm 0 W/m2
23:42 11.2 °C 9.6 °C 1019.6 hPa Calm   3.2 km/h 90% 0.0 mm 0 W/m2
23:47 11.2 °C 9.8 °C 1019.6 hPa NW 1.4 km/h 6.4 km/h 91% 0.0 mm 0 W/m2
23:52 11.2 °C 9.8 °C 1019.6 hPa NW 3.2 km/h 3.2 km/h 91% 0.0 mm 0 W/m2
23:57 11.2 °C 9.8 °C 1019.6 hPa NW 3.2 km/h 6.4 km/h 91% 0.0 mm 0 W/m2
Juneau County Weather
Compliments of Weather Underground - 4 mb